Home > Weather > Beira > Past weeks

Flag for Mozambique Past Weather in Beira, Mozambique — Yesterday and Last 2 Weeks

Now
68 °F

Clear.


Feels Like: 68 °F
Forecast: 63 / 78 °F
Wind: N/A

Location: Beira Airport

Current Time: Jun 27, 2016 at 8:37:39 PM

Latest Report: Jun 27, 2016 at 8:00 PM


Visibility: 10 mi

Pressure: 30.12 "Hg

Humidity: 94%

Dew Point: 66 °F

Location of BeiraLocation

Past Weather in Beira — Graph

°F

Beira Temperature Yesterday

Maximum temperature yesterday: 77 °F (at 2:00 PM)
Minimum temperature yesterday: 66 °F (at 4:00 AM)
Average temperature yesterday: 71 °F

High & Low Weather Summary for the Past Weeks

 TemperatureHumidityPressure
High81 °F (Jun 15, 1:00 PM)100% (Jun 16, 6:00 AM)30.36 "Hg (Jun 16, 6:00 AM)
Low59 °F (Jun 20, 6:00 AM)54% (Jun 15, 1:00 PM)29.98 "Hg (Jun 16, 3:00 PM)
Average71 °F79%30.18 "Hg
* Reported Jun 12 7:00 PM — Jun 27 7:00 PM, Beira, Weather by CustomWeather, © 2016

Note: Actual official high and low records may vary slightly from our data, if they occured in-between our weather recording intervals... More about our weather records

Advertising

Beira Weather History for the Previous 24 Hours

Scroll right to see more
 ConditionsComfort  
Time TempWeatherWind HumidityBarometerVisibility
7:00 PM
Mon, Jun 27
68 °FClear.N/A94%30.12 "Hg10 mi
5:00 PM73 °FSunny.N/A83%30.12 "Hg10 mi
3:00 PM77 °FPassing clouds.N/A69%30.12 "HgN/A
2:00 PM77 °FPassing clouds.N/A69%30.12 "HgN/A
12:00 PM73 °FScattered clouds.N/A83%30.18 "HgN/A
10:00 AM68 °FFog.N/A94%30.21 "Hg3 mi
9:00 AM66 °FFog.N/A94%30.24 "Hg1 mi
8:00 AM64 °FFog.N/A100%30.24 "Hg1 mi
7:00 AM64 °FFog.N/A100%30.18 "Hg0 mi
6:00 AM64 °FFog.N/A100%30.18 "Hg0 mi
5:00 AM64 °FFog.N/A100%30.18 "Hg0 mi
2:00 AM66 °FFog.N/A94%30.18 "Hg3 mi
12:00 AM68 °FClear.N/A94%30.21 "Hg10 mi
11:00 PM
Sun, Jun 26
68 °FPassing clouds.N/A94%30.21 "HgN/A
10:00 PM68 °FPassing clouds.N/A94%30.21 "HgN/A
9:00 PM70 °FClear.N/A94%30.21 "Hg10 mi
8:00 PM70 °FClear.N/A83%30.21 "Hg10 mi
Weather by CustomWeather, © 2016

See weather overviewHow to use our weather pages